Flag for Norway Weather past 2 weeks in Orkanger/Fannrem, Norway

Now
46 °F

Cool.


Feels Like: 46 °F
Forecast: 49 / 64 °F
Wind: 1 mph from Southeast

Location: Vinjeora Ii

Current Time: Jul 28, 2015 at 8:47:02 AM

Latest Report: Jul 28, 2015 at 8:00 AM


Visibility: N/A

Pressure: 29.59 "Hg

Humidity: 84%

Dew point: 41 °F

Location of Orkanger/FannremLocation

Historic Weather in Orkanger/Fannrem — Graph

°F

Orkanger/Fannrem temperature yesterday

Maximum temperature yesterday: 62 °F (at 3:00 PM)
Minimum temperature yesterday: 50 °F (at 4:00 AM)
Average temperature yesterday: 55 °F

Past Weeks' High & Low Weather Summary

 TemperatureHumidityPressure
High62 °F (Jul 17, 1:00 PM)93% (Jul 13, 7:00 AM)30.16 "Hg (Jul 13, 7:00 AM)
Low42 °F (Jul 17, 8:00 AM)41% (Jul 17, 1:00 PM)29.44 "Hg (Jul 18, 5:00 PM)
Average53 °F82%29.75 "Hg
* Reported Jul 13 7:00 AM — Jul 28 7:00 AM, Orkanger/Fannrem, Weather by CustomWeather, © 2015

Note: Actual official high and low records may vary slightly from our data, if they occured in-between our weather recording intervals... More about our weather records

Advertising

Orkanger/Fannrem weather history for previous 24 hours

 ConditionsComfort  
Time TempWeatherWind HumidityBarometerVisibility
7:00 AM
Tue, Jul 28
47 °FCool.2 mph81%29.59 "HgN/A
6:00 AM47 °FCool.2 mph82%29.59 "HgN/A
5:00 AM47 °FCool.2 mph87%29.59 "HgN/A
4:00 AM47 °FCool.1 mph90%29.58 "HgN/A
3:00 AM48 °FCool.1 mph91%29.58 "HgN/A
2:00 AM47 °FCool.1 mph91%29.58 "HgN/A
1:00 AM47 °FCool.1 mph90%29.57 "HgN/A
12:00 AM46 °FCool.1 mph89%29.56 "HgN/A
10:00 PM
Mon, Jul 27
51 °FCool.1 mph83%29.55 "HgN/A
9:00 PM54 °FCool.1 mph75%29.54 "HgN/A
8:00 PM56 °FCool.2 mph66%29.50 "HgN/A
7:00 PM58 °FCool.3 mph63%29.50 "HgN/A
6:00 PM58 °FCool.2 mph64%29.47 "HgN/A
5:00 PM59 °FCool.2 mph63%29.47 "HgN/A
4:00 PM58 °FCool.3 mph65%29.47 "HgN/A
3:00 PM62 °FRefreshingly cool.3 mph50%29.47 "HgN/A
2:00 PM61 °FRefreshingly cool.1 mph55%29.47 "HgN/A
1:00 PM57 °FCool.2 mph71%29.47 "HgN/A
12:00 PM57 °FCool.1 mph73%29.47 "HgN/A
11:00 AM55 °FCool.1 mph77%29.47 "HgN/A
10:00 AM54 °FCool.1 mph87%29.47 "HgN/A
9:00 AM52 °FCool.1 mph92%29.47 "HgN/A
8:00 AM51 °FCool.1 mph93%29.47 "HgN/A
Weather by CustomWeather, © 2015

See weather overviewHow to use our weather pages